Time,TemperatureF,DewpointF,PressureIn,WindDirection,WindDirectionDegrees,WindSpeedMPH,WindSpeedGustMPH,Humidity,HourlyPrecipIn,Conditions,Clouds,dailyrainin,SoftwareType,DateUTC
2014-02-04 00:23:00,3.0,1.0,-100.00,West,265,0.0,0.0,92,0.00,,,-99.99,,2014-02-04 05:23:00,
2014-02-04 00:52:00,2.0,1.0,-100.00,NNW,340,0.0,0.0,92,0.00,,,-99.99,,2014-02-04 05:52:00,
2014-02-04 01:22:00,1.0,-1.0,-100.00,NNW,335,0.0,0.0,92,0.00,,,-99.99,,2014-02-04 06:22:00,
2014-02-04 01:52:00,-1.0,-2.0,-100.00,North,10,1.0,2.0,92,0.00,,,-99.99,,2014-02-04 06:52:00,
2014-02-04 02:22:00,-1.0,-2.0,-100.00,East,85,0.0,1.0,92,0.00,,,-99.99,,2014-02-04 07:22:00,
2014-02-04 02:52:00,-1.0,-3.0,-100.00,ENE,70,0.0,2.0,92,0.00,,,-99.99,,2014-02-04 07:52:00,
2014-02-04 03:22:00,-1.0,-2.0,-100.00,NNW,330,0.0,0.0,92,0.00,,,-99.99,,2014-02-04 08:22:00,
2014-02-04 03:52:00,0.0,-2.0,-100.00,West,280,0.0,0.0,92,0.00,,,-99.99,,2014-02-04 08:52:00,
2014-02-04 04:23:00,-1.0,-2.0,-100.00,NW,315,0.0,1.0,92,0.00,,,-99.99,,2014-02-04 09:23:00,
2014-02-04 04:54:00,0.0,-2.0,-100.00,NW,310,0.0,0.0,92,0.00,,,-99.99,,2014-02-04 09:54:00,
2014-02-04 05:23:00,1.0,-1.0,-100.00,SW,215,0.0,1.0,92,0.00,,,-99.99,,2014-02-04 10:23:00,
2014-02-04 05:53:00,1.0,-1.0,-100.00,SW,220,0.0,0.0,92,0.00,,,-99.99,,2014-02-04 10:53:00,
2014-02-04 06:22:00,1.0,-1.0,-100.00,NW,315,0.0,0.0,93,0.00,,,-99.99,,2014-02-04 11:22:00,
2014-02-04 06:52:00,1.0,0.0,-100.00,East,85,0.0,0.0,93,0.00,,,-99.99,,2014-02-04 11:52:00,
2014-02-04 07:22:00,1.0,0.0,-100.00,North,0,1.0,1.0,93,0.00,,,-99.99,,2014-02-04 12:22:00,
2014-02-04 07:52:00,2.0,0.0,-100.00,North,5,0.0,0.0,93,0.00,,,-99.99,,2014-02-04 12:52:00,
2014-02-04 08:22:00,2.0,1.0,-100.00,East,80,0.0,0.0,93,0.00,,,-99.99,,2014-02-04 13:22:00,
2014-02-04 08:52:00,5.0,4.0,-100.00,East,80,0.0,0.0,93,0.00,,,-99.99,,2014-02-04 13:52:00,
2014-02-04 09:22:00,7.0,6.0,-100.00,WNW,290,0.0,1.0,93,0.00,,,-99.99,,2014-02-04 14:22:00,
2014-02-04 09:52:00,9.0,8.0,-100.00,NNW,335,0.0,1.0,94,0.00,,,-99.99,,2014-02-04 14:52:00,
2014-02-04 10:22:00,13.0,12.0,-100.00,East,85,1.0,2.0,94,0.00,,,-99.99,,2014-02-04 15:22:00,
2014-02-04 10:53:00,17.0,15.0,-100.00,ENE,75,1.0,4.0,93,0.00,,,-99.99,,2014-02-04 15:53:00,
2014-02-04 11:23:00,19.0,15.0,-100.00,East,85,2.0,6.0,85,0.00,,,-99.99,,2014-02-04 16:23:00,
2014-02-04 11:53:00,19.0,14.0,-100.00,East,90,2.0,6.0,79,0.00,,,-99.99,,2014-02-04 16:53:00,
2014-02-04 12:02:00,19.0,14.0,-100.00,East,90,2.0,6.0,79,0.00,,,-99.99,,2014-02-04 17:02:00,
2014-02-04 12:22:00,21.0,14.0,-100.00,East,95,5.0,7.0,73,0.00,,,-99.99,,2014-02-04 17:22:00,
2014-02-04 12:52:00,21.0,13.0,-100.00,East,90,4.0,7.0,70,0.00,,,-99.99,,2014-02-04 17:52:00,
2014-02-04 13:22:00,22.0,13.0,-100.00,NE,50,4.0,8.0,66,0.00,,,-99.99,,2014-02-04 18:22:00,
2014-02-04 13:32:00,22.0,13.0,-100.00,NE,50,4.0,8.0,66,0.00,,,-99.99,,2014-02-04 18:32:00,
2014-02-04 13:52:00,23.0,13.0,-100.00,ESE,110,3.0,7.0,65,0.00,,,-99.99,,2014-02-04 18:52:00,
2014-02-04 14:22:00,25.0,13.0,-100.00,NE,40,3.0,9.0,61,0.00,,,-99.99,,2014-02-04 19:22:00,
2014-02-04 14:52:00,23.0,12.0,-100.00,NE,55,4.0,7.0,61,0.00,,,-99.99,,2014-02-04 19:52:00,
2014-02-04 15:22:00,23.0,13.0,-100.00,NE,55,1.0,6.0,63,0.00,,,-99.99,,2014-02-04 20:22:00,
2014-02-04 15:52:00,23.0,12.0,-100.00,NE,55,4.0,7.0,63,0.00,,,-99.99,,2014-02-04 20:52:00,
2014-02-04 16:22:00,22.0,12.0,-100.00,NE,55,4.0,7.0,64,0.00,,,-99.99,,2014-02-04 21:22:00,
2014-02-04 16:54:00,22.0,12.0,-100.00,North,10,3.0,7.0,64,0.00,,,-99.99,,2014-02-04 21:54:00,
2014-02-04 17:23:00,22.0,13.0,-100.00,NNE,30,4.0,7.0,66,0.00,,,-99.99,,2014-02-04 22:23:00,
2014-02-04 17:52:00,22.0,13.0,-100.00,NE,55,2.0,7.0,67,0.00,,,-99.99,,2014-02-04 22:52:00,
2014-02-04 18:22:00,21.0,13.0,-100.00,NNE,30,3.0,7.0,68,0.00,,,-99.99,,2014-02-04 23:22:00,
2014-02-04 18:52:00,21.0,13.0,-100.00,NE,45,2.0,4.0,70,0.00,,,-99.99,,2014-02-04 23:52:00,
2014-02-04 19:22:00,21.0,15.0,-100.00,NNE,15,4.0,7.0,77,1.69,,,-99.99,,2014-02-05 00:22:00,
2014-02-04 19:52:00,20.0,17.0,-100.00,ENE,60,6.0,10.0,88,1.69,,,-99.99,,2014-02-05 00:52:00,
2014-02-04 20:22:00,20.0,18.0,-100.00,NE,55,4.0,13.0,92,1.10,,,-99.99,,2014-02-05 01:22:00,
2014-02-04 20:52:00,19.0,18.0,-100.00,NE,40,3.0,9.0,93,0.55,,,-99.99,,2014-02-05 01:52:00,
2014-02-04 21:22:00,20.0,19.0,-100.00,NNE,25,6.0,12.0,94,1.69,,,-99.99,,2014-02-05 02:22:00,
2014-02-04 21:52:00,20.0,19.0,-100.00,North,10,7.0,13.0,96,4.53,,,-99.99,,2014-02-05 02:52:00,
2014-02-04 22:22:00,20.0,19.0,-100.00,North,0,5.0,16.0,97,0.00,,,-99.99,,2014-02-05 03:22:00,
2014-02-04 22:54:00,20.0,19.0,-100.00,NE,40,6.0,15.0,96,0.55,,,-99.99,,2014-02-05 03:54:00,
2014-02-04 23:23:00,20.0,19.0,-100.00,NE,40,7.0,14.0,96,1.10,,,-99.99,,2014-02-05 04:23:00,
2014-02-04 23:53:00,20.0,19.0,-100.00,NE,40,7.0,14.0,96,0.55,,,-99.99,,2014-02-05 04:53:00,